,,,PA_Meas_PMT16A,,PR_Meas_QMR101_102,,RH_Meas_QMH101,,SR_Meas_QMS101,,TA_Meas_QMH101,,GenWind,,GenWind,
date,time,status,PA,status,PR,status,RH,status,SR,status,TA,status,DirAvg,status,SpdAvg,
2010-10-09, 00:00:04,VALID,1010.14,VALID,0,VALID,103.131,VALID,0.105969,VALID,24.9784,VALID,55,VALID,0.169531,
2010-10-09, 00:01:04,VALID,1010.14,VALID,0,VALID,103.115,VALID,0,VALID,24.9979,VALID,55,VALID,0.505078,
2010-10-09, 00:02:04,VALID,1010.11,VALID,0,VALID,103.07,VALID,0.105969,VALID,24.9979,VALID,55,VALID,0,
2010-10-09, 00:03:04,VALID,1010.13,VALID,0,VALID,103.039,VALID,0.105969,VALID,24.9979,VALID,55,VALID,0,
2010-10-09, 00:04:04,VALID,1010.11,VALID,0,VALID,103.039,VALID,0.105969,VALID,24.9979,VALID,55,VALID,0.0425781,
2010-10-09, 00:05:04,VALID,1010.08,VALID,0,VALID,102.993,VALID,0.105969,VALID,25.0174,VALID,55,VALID,0.251172,
2010-10-09, 00:06:04,VALID,1010.08,VALID,0,VALID,103.001,VALID,0.105969,VALID,24.9979,VALID,55,VALID,0.15625,
2010-10-09, 00:07:04,VALID,1010.07,VALID,0,VALID,102.978,VALID,0,VALID,24.9784,VALID,55,VALID,0,
2010-10-09, 00:08:04,VALID,1010.06,VALID,0,VALID,102.955,VALID,0,VALID,25.0193,VALID,55,VALID,0.369141,
2010-10-09, 00:09:04,VALID,1010.06,VALID,0,VALID,102.948,VALID,0,VALID,24.9979,VALID,55,VALID,0.0933594,
2010-10-09, 00:10:04,VALID,1010.05,VALID,0,VALID,102.955,VALID,0,VALID,24.9979,VALID,55,VALID,0.0105469,
2010-10-09, 00:11:04,VALID,1010.05,VALID,0,VALID,102.963,VALID,0,VALID,25.0193,VALID,55,VALID,0,
2010-10-09, 00:12:04,VALID,1010.05,VALID,0,VALID,102.963,VALID,0,VALID,24.9998,VALID,55,VALID,0,
2010-10-09, 00:13:04,VALID,1010.04,VALID,0,VALID,102.971,VALID,0,VALID,24.9998,VALID,55,VALID,0,
2010-10-09, 00:14:04,VALID,1010.04,VALID,0,VALID,103.016,VALID,0,VALID,24.9784,VALID,55,VALID,0,
2010-10-09, 00:15:04,VALID,1010.01,VALID,0,VALID,103.054,VALID,0.105969,VALID,24.9784,VALID,55,VALID,0,
2010-10-09, 00:16:04,VALID,1010.03,VALID,0,VALID,103.054,VALID,0,VALID,24.9803,VALID,55,VALID,0.100391,
2010-10-09, 00:17:04,VALID,1010,VALID,0,VALID,103.062,VALID,0,VALID,24.9803,VALID,55,VALID,0.0078125,
2010-10-09, 00:18:04,VALID,1009.99,VALID,0,VALID,103.077,VALID,0,VALID,24.9589,VALID,55,VALID,0.298828,
2010-10-09, 00:19:04,VALID,1010,VALID,0,VALID,103.085,VALID,0,VALID,24.9608,VALID,55,VALID,0.2125,
2010-10-09, 00:20:04,VALID,1009.98,VALID,0,VALID,103.093,VALID,0,VALID,24.9394,VALID,55,VALID,0.322656,
2010-10-09, 00:21:04,VALID,1009.96,VALID,0,VALID,103.085,VALID,0,VALID,24.9608,VALID,55,VALID,0.360547,
2010-10-09, 00:22:04,VALID,1009.94,VALID,0,VALID,103.07,VALID,0,VALID,24.9589,VALID,55,VALID,0,
2010-10-09, 00:23:04,VALID,1009.93,VALID,0,VALID,103.093,VALID,0,VALID,24.9608,VALID,55,VALID,0,
2010-10-09, 00:24:04,VALID,1009.9,VALID,0,VALID,103.085,VALID,0,VALID,24.9608,VALID,55,VALID,0.000390625,
2010-10-09, 00:25:04,VALID,1009.9,VALID,0,VALID,103.1,VALID,0,VALID,24.9413,VALID,55,VALID,0.0121094,
2010-10-09, 00:26:04,VALID,1009.89,VALID,0,VALID,103.1,VALID,0,VALID,24.9608,VALID,55,VALID,0,
2010-10-09, 00:27:04,VALID,1009.88,VALID,0,VALID,103.093,VALID,0,VALID,24.9218,VALID,55,VALID,0,
2010-10-09, 00:28:04,VALID,1009.88,VALID,0,VALID,103.123,VALID,0,VALID,24.9004,VALID,55,VALID,0,
2010-10-09, 00:29:04,VALID,1009.86,VALID,0,VALID,103.131,VALID,0,VALID,24.9218,VALID,55,VALID,0,
2010-10-09, 00:30:04,VALID,1009.88,VALID,0,VALID,103.131,VALID,0,VALID,24.9023,VALID,55,VALID,0,
2010-10-09, 00:31:04,VALID,1009.85,VALID,0,VALID,103.146,VALID,0,VALID,24.9023,VALID,55,VALID,0,
2010-10-09, 00:32:04,VALID,1009.85,VALID,0,VALID,103.146,VALID,0,VALID,24.8828,VALID,55,VALID,0,
2010-10-09, 00:33:04,VALID,1009.84,VALID,0,VALID,103.154,VALID,0,VALID,24.8809,VALID,55,VALID,0,
2010-10-09, 00:34:04,VALID,1009.82,VALID,0,VALID,103.169,VALID,0,VALID,24.9023,VALID,55,VALID,0,
2010-10-09, 00:35:04,VALID,1009.81,VALID,0,VALID,103.161,VALID,0,VALID,24.8615,VALID,55,VALID,0,
2010-10-09, 00:36:04,VALID,1009.81,VALID,0,VALID,103.169,VALID,0,VALID,24.8828,VALID,55,VALID,0,
2010-10-09, 00:37:04,VALID,1009.79,VALID,0,VALID,103.184,VALID,0,VALID,24.8615,VALID,55,VALID,0,
2010-10-09, 00:38:04,VALID,1009.8,VALID,0,VALID,103.184,VALID,0.105969,VALID,24.8633,VALID,55,VALID,0,
2010-10-09, 00:39:04,VALID,1009.79,VALID,0,VALID,103.192,VALID,0,VALID,24.8225,VALID,55,VALID,0,
2010-10-09, 00:40:04,VALID,1009.78,VALID,0,VALID,103.207,VALID,0,VALID,24.803,VALID,55,VALID,0,
2010-10-09, 00:41:04,VALID,1009.76,VALID,0,VALID,103.207,VALID,0.105969,VALID,24.803,VALID,55,VALID,0.0929687,
2010-10-09, 00:42:04,VALID,1009.73,VALID,0,VALID,103.199,VALID,0,VALID,24.803,VALID,55,VALID,0.389062,
2010-10-09, 00:43:04,VALID,1009.74,VALID,0,VALID,103.199,VALID,0,VALID,24.803,VALID,55,VALID,0,
2010-10-09, 00:44:04,VALID,1009.75,VALID,0,VALID,103.192,VALID,0.105969,VALID,24.8049,VALID,55,VALID,0,
2010-10-09, 00:45:04,VALID,1009.74,VALID,0,VALID,103.199,VALID,0,VALID,24.7835,VALID,55,VALID,0,
2010-10-09, 00:46:04,VALID,1009.75,VALID,0,VALID,103.199,VALID,0,VALID,24.7854,VALID,55,VALID,0,
2010-10-09, 00:47:04,VALID,1009.74,VALID,0,VALID,103.215,VALID,0.105969,VALID,24.7854,VALID,55,VALID,0,
2010-10-09, 00:48:04,VALID,1009.74,VALID,0,VALID,103.199,VALID,0,VALID,24.764,VALID,55,VALID,0,
2010-10-09, 00:49:04,VALID,1009.75,VALID,0,VALID,103.23,VALID,0.105969,VALID,24.7445,VALID,55,VALID,0,
2010-10-09, 00:50:04,VALID,1009.73,VALID,0,VALID,103.23,VALID,0,VALID,24.7445,VALID,55,VALID,0,
2010-10-09, 00:51:04,VALID,1009.73,VALID,0,VALID,103.222,VALID,0,VALID,24.764,VALID,55,VALID,0,
2010-10-09, 00:52:04,VALID,1009.7,VALID,0,VALID,103.23,VALID,0.105969,VALID,24.7854,VALID,55,VALID,0,
2010-10-09, 00:53:04,VALID,1009.68,VALID,0,VALID,103.237,VALID,0,VALID,24.7445,VALID,55,VALID,0,
2010-10-09, 00:54:04,VALID,1009.68,VALID,0,VALID,103.237,VALID,0,VALID,24.7464,VALID,55,VALID,0,
2010-10-09, 00:55:04,VALID,1009.64,VALID,0,VALID,103.222,VALID,0,VALID,24.725,VALID,55,VALID,0,
2010-10-09, 00:56:04,VALID,1009.6,VALID,0,VALID,103.245,VALID,0,VALID,24.7269,VALID,55,VALID,0,
2010-10-09, 00:57:04,VALID,1009.61,VALID,0,VALID,103.237,VALID,0,VALID,24.7074,VALID,55,VALID,0,
2010-10-09, 00:58:04,VALID,1009.6,VALID,0,VALID,103.222,VALID,0,VALID,24.7074,VALID,55,VALID,0,
2010-10-09, 00:59:04,VALID,1009.59,VALID,0,VALID,103.23,VALID,0,VALID,24.7269,VALID,55,VALID,0,
2010-10-09, 01:00:04,VALID,1009.59,VALID,0,VALID,103.237,VALID,0,VALID,24.7269,VALID,55,VALID,0,
2010-10-09, 01:01:04,VALID,1009.57,VALID,0,VALID,103.268,VALID,0,VALID,24.7269,VALID,55,VALID,0,
2010-10-09, 01:02:04,VALID,1009.56,VALID,0,VALID,103.253,VALID,0,VALID,24.7074,VALID,84,VALID,0,
2010-10-09, 01:03:04,VALID,1009.59,VALID,0,VALID,103.26,VALID,0,VALID,24.686,VALID,108,VALID,0,
2010-10-09, 01:04:04,VALID,1009.57,VALID,0,VALID,103.253,VALID,0,VALID,24.7074,VALID,108,VALID,0,
2010-10-09, 01:05:04,VALID,1009.6,VALID,0,VALID,103.268,VALID,0,VALID,24.6879,VALID,108,VALID,0,
2010-10-09, 01:06:04,VALID,1009.58,VALID,0,VALID,103.26,VALID,0,VALID,24.6879,VALID,108,VALID,0,
2010-10-09, 01:07:04,VALID,1009.57,VALID,0,VALID,103.26,VALID,0,VALID,24.7074,VALID,108,VALID,0,
2010-10-09, 01:08:04,VALID,1009.54,VALID,0,VALID,103.268,VALID,0,VALID,24.7074,VALID,108,VALID,0,
2010-10-09, 01:09:04,VALID,1009.52,VALID,0,VALID,103.276,VALID,0.105969,VALID,24.686,VALID,57,VALID,0,
2010-10-09, 01:10:04,VALID,1009.52,VALID,0,VALID,103.245,VALID,0,VALID,24.6879,VALID,57,VALID,0,
2010-10-09, 01:11:04,VALID,1009.51,VALID,0,VALID,103.245,VALID,0.105969,VALID,24.6471,VALID,57,VALID,0,
2010-10-09, 01:12:04,VALID,1009.52,VALID,0,VALID,103.26,VALID,0,VALID,24.6666,VALID,57,VALID,0,
2010-10-09, 01:13:04,VALID,1009.51,VALID,0,VALID,103.26,VALID,0.105969,VALID,24.6471,VALID,57,VALID,0,
2010-10-09, 01:14:04,VALID,1009.5,VALID,0,VALID,103.23,VALID,0.105969,VALID,24.6471,VALID,57,VALID,0,
2010-10-09, 01:15:04,VALID,1009.48,VALID,0,VALID,103.237,VALID,0,VALID,24.6684,VALID,57,VALID,0,
2010-10-09, 01:16:04,VALID,1009.49,VALID,0,VALID,103.215,VALID,0,VALID,24.6471,VALID,57,VALID,0,
2010-10-09, 01:17:04,VALID,1009.45,VALID,0,VALID,103.215,VALID,0,VALID,24.6684,VALID,57,VALID,0,
2010-10-09, 01:18:04,VALID,1009.48,VALID,0,VALID,103.23,VALID,0,VALID,24.6684,VALID,57,VALID,0,
2010-10-09, 01:19:04,VALID,1009.43,VALID,0,VALID,103.222,VALID,0,VALID,24.6489,VALID,57,VALID,0,
2010-10-09, 01:20:04,VALID,1009.42,VALID,0,VALID,103.222,VALID,0,VALID,24.6489,VALID,57,VALID,0,
2010-10-09, 01:21:04,VALID,1009.42,VALID,0,VALID,103.222,VALID,0,VALID,24.6489,VALID,57,VALID,0,
2010-10-09, 01:22:04,VALID,1009.36,VALID,0,VALID,103.222,VALID,0,VALID,24.6489,VALID,57,VALID,0,
2010-10-09, 01:23:04,VALID,1009.37,VALID,0,VALID,103.207,VALID,0,VALID,24.6294,VALID,57,VALID,0,
2010-10-09, 01:24:04,VALID,1009.34,VALID,0,VALID,103.237,VALID,0,VALID,24.6081,VALID,57,VALID,0,
2010-10-09, 01:25:04,VALID,1009.29,VALID,0,VALID,103.222,VALID,0,VALID,24.6294,VALID,57,VALID,0,
2010-10-09, 01:26:04,VALID,1009.3,VALID,0,VALID,103.222,VALID,0,VALID,24.6081,VALID,57,VALID,0,
2010-10-09, 01:27:04,VALID,1009.27,VALID,0,VALID,103.237,VALID,0,VALID,24.6099,VALID,57,VALID,0,
2010-10-09, 01:28:04,VALID,1009.27,VALID,0,VALID,103.237,VALID,0,VALID,24.5905,VALID,57,VALID,0,
2010-10-09, 01:29:04,VALID,1009.26,VALID,0,VALID,103.245,VALID,0,VALID,24.5496,VALID,57,VALID,0,
2010-10-09, 01:30:04,VALID,1009.22,VALID,0,VALID,103.23,VALID,0,VALID,24.5905,VALID,57,VALID,0,
2010-10-09, 01:31:04,VALID,1009.23,VALID,0,VALID,103.253,VALID,0,VALID,24.571,VALID,57,VALID,0,
2010-10-09, 01:32:04,VALID,1009.22,VALID,0,VALID,103.245,VALID,0,VALID,24.5905,VALID,57,VALID,0,
2010-10-09, 01:33:04,VALID,1009.21,VALID,0,VALID,103.26,VALID,0,VALID,24.571,VALID,57,VALID,0,
2010-10-09, 01:34:04,VALID,1009.19,VALID,0,VALID,103.268,VALID,0,VALID,24.5496,VALID,57,VALID,0,
2010-10-09, 01:35:04,VALID,1009.19,VALID,0,VALID,103.306,VALID,0.105969,VALID,24.5496,VALID,57,VALID,0,
2010-10-09, 01:36:04,VALID,1009.16,VALID,0,VALID,103.283,VALID,0.105969,VALID,24.5301,VALID,57,VALID,0,
2010-10-09, 01:37:04,VALID,1009.14,VALID,0,VALID,103.298,VALID,0,VALID,24.5106,VALID,57,VALID,0,
2010-10-09, 01:38:04,VALID,1009.12,VALID,0,VALID,103.283,VALID,0,VALID,24.5106,VALID,57,VALID,0,
2010-10-09, 01:39:04,VALID,1009.07,VALID,0,VALID,103.306,VALID,0,VALID,24.5106,VALID,57,VALID,0,
2010-10-09, 01:40:04,VALID,1009.07,VALID,0,VALID,103.298,VALID,0,VALID,24.4911,VALID,57,VALID,0,
2010-10-09, 01:41:04,VALID,1009.04,VALID,0,VALID,103.321,VALID,0,VALID,24.5125,VALID,57,VALID,0,
2010-10-09, 01:42:04,VALID,1009.05,VALID,0,VALID,103.321,VALID,0,VALID,24.5125,VALID,57,VALID,0,
2010-10-09, 01:43:04,VALID,1009.02,VALID,0,VALID,103.306,VALID,0,VALID,24.4717,VALID,57,VALID,0,
2010-10-09, 01:44:04,VALID,1008.96,VALID,0,VALID,103.321,VALID,0,VALID,24.493,VALID,57,VALID,0,
2010-10-09, 01:45:04,VALID,1008.97,VALID,0,VALID,103.344,VALID,0,VALID,24.4522,VALID,57,VALID,0,
2010-10-09, 01:46:04,VALID,1008.96,VALID,0,VALID,103.314,VALID,0,VALID,24.454,VALID,57,VALID,0,
2010-10-09, 01:47:04,VALID,1008.94,VALID,0,VALID,103.329,VALID,0,VALID,24.4345,VALID,57,VALID,0,
2010-10-09, 01:48:04,VALID,1008.95,VALID,0,VALID,103.337,VALID,0,VALID,24.415,VALID,57,VALID,0,
2010-10-09, 01:49:04,VALID,1008.95,VALID,0,VALID,103.337,VALID,0,VALID,24.415,VALID,57,VALID,0,
2010-10-09, 01:50:04,VALID,1008.95,VALID,0,VALID,103.337,VALID,0,VALID,24.415,VALID,57,VALID,0,
2010-10-09, 01:51:04,VALID,1008.95,VALID,0,VALID,103.337,VALID,0,VALID,24.3937,VALID,57,VALID,0,
2010-10-09, 01:52:04,VALID,1008.95,VALID,0,VALID,103.329,VALID,0,VALID,24.3956,VALID,57,VALID,0,
2010-10-09, 01:53:04,VALID,1008.95,VALID,0,VALID,103.352,VALID,0,VALID,24.3742,VALID,57,VALID,0,
2010-10-09, 01:54:04,VALID,1008.93,VALID,0,VALID,103.344,VALID,0,VALID,24.3956,VALID,57,VALID,0,
2010-10-09, 01:55:04,VALID,1008.93,VALID,0,VALID,103.337,VALID,0,VALID,24.3956,VALID,57,VALID,0,
2010-10-09, 01:56:04,VALID,1008.89,VALID,0,VALID,103.321,VALID,0,VALID,24.3742,VALID,57,VALID,0,
2010-10-09, 01:57:04,VALID,1008.89,VALID,0,VALID,103.329,VALID,0.105969,VALID,24.3761,VALID,57,VALID,0,
2010-10-09, 01:58:04,VALID,1008.87,VALID,0,VALID,103.337,VALID,0,VALID,24.3547,VALID,57,VALID,0,
2010-10-09, 01:59:04,VALID,1008.84,VALID,0,VALID,103.329,VALID,0,VALID,24.3352,VALID,57,VALID,0,
2010-10-09, 02:00:04,VALID,1008.84,VALID,0,VALID,103.337,VALID,0,VALID,24.3566,VALID,57,VALID,0,
2010-10-09, 02:01:04,VALID,1008.82,VALID,0,VALID,103.329,VALID,0,VALID,24.3566,VALID,57,VALID,0,
2010-10-09, 02:02:04,VALID,1008.78,VALID,0,VALID,103.306,VALID,0,VALID,24.3371,VALID,57,VALID,0,
2010-10-09, 02:03:04,VALID,1008.79,VALID,0,VALID,103.329,VALID,0,VALID,24.3371,VALID,57,VALID,0,
2010-10-09, 02:04:04,VALID,1008.81,VALID,0,VALID,103.314,VALID,0,VALID,24.3371,VALID,57,VALID,0,
2010-10-09, 02:05:04,VALID,1008.8,VALID,0,VALID,103.314,VALID,0,VALID,24.3158,VALID,57,VALID,0,
2010-10-09, 02:06:04,VALID,1008.79,VALID,0,VALID,103.306,VALID,0,VALID,24.3352,VALID,57,VALID,0,
2010-10-09, 02:07:04,VALID,1008.78,VALID,0,VALID,103.298,VALID,0,VALID,24.3566,VALID,57,VALID,0,
2010-10-09, 02:08:04,VALID,1008.76,VALID,0,VALID,103.321,VALID,0,VALID,24.3371,VALID,57,VALID,0,
2010-10-09, 02:09:04,VALID,1008.76,VALID,0,VALID,103.306,VALID,0,VALID,24.3158,VALID,57,VALID,0,
2010-10-09, 02:10:04,VALID,1008.79,VALID,0,VALID,103.314,VALID,0,VALID,24.3176,VALID,57,VALID,0,
2010-10-09, 02:11:04,VALID,1008.76,VALID,0,VALID,103.276,VALID,0,VALID,24.3176,VALID,57,VALID,0,
2010-10-09, 02:12:04,VALID,1008.79,VALID,0,VALID,103.268,VALID,0,VALID,24.2981,VALID,57,VALID,0,
2010-10-09, 02:13:04,VALID,1008.78,VALID,0,VALID,103.268,VALID,0,VALID,24.3176,VALID,57,VALID,0,
2010-10-09, 02:14:04,VALID,1008.74,VALID,0,VALID,103.268,VALID,0,VALID,24.2981,VALID,57,VALID,0,
2010-10-09, 02:15:04,VALID,1008.76,VALID,0,VALID,103.283,VALID,0,VALID,24.2786,VALID,57,VALID,0,
2010-10-09, 02:16:04,VALID,1008.75,VALID,0,VALID,103.26,VALID,0,VALID,24.2786,VALID,57,VALID,0,
2010-10-09, 02:17:04,VALID,1008.75,VALID,0,VALID,103.268,VALID,0,VALID,24.2805,VALID,57,VALID,0,
2010-10-09, 02:18:04,VALID,1008.71,VALID,0,VALID,103.245,VALID,0,VALID,24.2591,VALID,57,VALID,0,
2010-10-09, 02:19:04,VALID,1008.72,VALID,0,VALID,103.253,VALID,0,VALID,24.2805,VALID,57,VALID,0,
2010-10-09, 02:20:04,VALID,1008.68,VALID,0,VALID,103.245,VALID,0,VALID,24.2591,VALID,57,VALID,0,
2010-10-09, 02:21:04,VALID,1008.68,VALID,0,VALID,103.237,VALID,0,VALID,24.2591,VALID,57,VALID,0,
2010-10-09, 02:22:04,VALID,1008.68,VALID,0,VALID,103.237,VALID,0,VALID,24.2591,VALID,57,VALID,0,
2010-10-09, 02:23:04,VALID,1008.66,VALID,0,VALID,103.222,VALID,0,VALID,24.2591,VALID,57,VALID,0,
2010-10-09, 02:24:04,VALID,1008.65,VALID,0,VALID,103.222,VALID,0,VALID,24.2396,VALID,57,VALID,0,
2010-10-09, 02:25:04,VALID,1008.67,VALID,0,VALID,103.222,VALID,0,VALID,24.2415,VALID,57,VALID,0,
2010-10-09, 02:26:04,VALID,1008.7,VALID,0,VALID,103.237,VALID,0,VALID,24.2396,VALID,57,VALID,0,
2010-10-09, 02:27:04,VALID,1008.69,VALID,0,VALID,103.215,VALID,0,VALID,24.2396,VALID,57,VALID,0,
2010-10-09, 02:28:04,VALID,1008.73,VALID,0,VALID,103.222,VALID,0,VALID,24.2202,VALID,57,VALID,0,
2010-10-09, 02:29:04,VALID,1008.74,VALID,0,VALID,103.23,VALID,0,VALID,24.2202,VALID,57,VALID,0,
2010-10-09, 02:30:04,VALID,1008.74,VALID,0,VALID,103.215,VALID,0,VALID,24.2202,VALID,57,VALID,0,
2010-10-09, 02:31:04,VALID,1008.74,VALID,0,VALID,103.184,VALID,0,VALID,24.2202,VALID,57,VALID,0,
2010-10-09, 02:32:04,VALID,1008.75,VALID,0,VALID,103.199,VALID,0,VALID,24.2415,VALID,57,VALID,0,
2010-10-09, 02:33:04,VALID,1008.75,VALID,0,VALID,103.192,VALID,0,VALID,24.2007,VALID,57,VALID,0,
2010-10-09, 02:34:04,VALID,1008.77,VALID,0,VALID,103.199,VALID,0,VALID,24.2007,VALID,57,VALID,0,
2010-10-09, 02:35:04,VALID,1008.79,VALID,0,VALID,103.199,VALID,0,VALID,24.1812,VALID,57,VALID,0,
2010-10-09, 02:36:04,VALID,1008.78,VALID,0,VALID,103.207,VALID,0,VALID,24.1617,VALID,57,VALID,0,
2010-10-09, 02:37:04,VALID,1008.77,VALID,0,VALID,103.222,VALID,0,VALID,24.1599,VALID,57,VALID,0,
2010-10-09, 02:38:04,VALID,1008.78,VALID,0,VALID,103.215,VALID,0,VALID,24.1812,VALID,57,VALID,0,
2010-10-09, 02:39:04,VALID,1008.78,VALID,0,VALID,103.23,VALID,0,VALID,24.1599,VALID,57,VALID,0,
2010-10-09, 02:40:04,VALID,1008.79,VALID,0,VALID,103.215,VALID,0,VALID,24.1404,VALID,57,VALID,0,
2010-10-09, 02:41:04,VALID,1008.78,VALID,0,VALID,103.215,VALID,0,VALID,24.1617,VALID,57,VALID,0,
2010-10-09, 02:42:04,VALID,1008.77,VALID,0,VALID,103.215,VALID,0,VALID,24.1422,VALID,57,VALID,0,
2010-10-09, 02:43:04,VALID,1008.77,VALID,0,VALID,103.215,VALID,0,VALID,24.1422,VALID,57,VALID,0,
2010-10-09, 02:44:04,VALID,1008.78,VALID,0,VALID,103.207,VALID,0,VALID,24.1404,VALID,57,VALID,0,
2010-10-09, 02:45:04,VALID,1008.79,VALID,0,VALID,103.215,VALID,0,VALID,24.1422,VALID,57,VALID,0,
2010-10-09, 02:46:04,VALID,1008.75,VALID,0,VALID,103.176,VALID,0.105969,VALID,24.1422,VALID,57,VALID,0,
2010-10-09, 02:47:04,VALID,1008.77,VALID,0,VALID,103.207,VALID,0,VALID,24.1422,VALID,57,VALID,0,
2010-10-09, 02:48:04,VALID,1008.75,VALID,0,VALID,103.192,VALID,0,VALID,24.1227,VALID,57,VALID,0,
2010-10-09, 02:49:04,VALID,1008.77,VALID,0,VALID,103.184,VALID,0,VALID,24.1209,VALID,57,VALID,0,
2010-10-09, 02:50:04,VALID,1008.76,VALID,0,VALID,103.169,VALID,0.105969,VALID,24.1404,VALID,57,VALID,0,
2010-10-09, 02:51:04,VALID,1008.76,VALID,0,VALID,103.176,VALID,0.105969,VALID,24.1209,VALID,57,VALID,0,
2010-10-09, 02:52:04,VALID,1008.75,VALID,0,VALID,103.169,VALID,0.105969,VALID,24.1209,VALID,57,VALID,0,
2010-10-09, 02:53:04,VALID,1008.73,VALID,0,VALID,103.146,VALID,0,VALID,24.1422,VALID,57,VALID,0,
2010-10-09, 02:54:04,VALID,1008.74,VALID,0,VALID,103.176,VALID,0,VALID,24.1014,VALID,57,VALID,0,
2010-10-09, 02:55:04,VALID,1008.76,VALID,0,VALID,103.161,VALID,0,VALID,24.1227,VALID,57,VALID,0,
2010-10-09, 02:56:04,VALID,1008.73,VALID,0,VALID,103.176,VALID,0,VALID,24.1209,VALID,57,VALID,0,
2010-10-09, 02:57:04,VALID,1008.73,VALID,0,VALID,103.161,VALID,0,VALID,24.1227,VALID,57,VALID,0,
2010-10-09, 02:58:04,VALID,1008.72,VALID,0,VALID,103.146,VALID,0,VALID,24.1227,VALID,57,VALID,0,
2010-10-09, 02:59:04,VALID,1008.68,VALID,0,VALID,103.138,VALID,0,VALID,24.1227,VALID,57,VALID,0,
2010-10-09, 03:00:04,VALID,1008.67,VALID,0,VALID,103.146,VALID,0,VALID,24.1422,VALID,57,VALID,0,
2010-10-09, 03:01:04,VALID,1008.69,VALID,0,VALID,103.115,VALID,0,VALID,24.1422,VALID,57,VALID,0,
2010-10-09, 03:02:04,VALID,1008.65,VALID,0,VALID,103.138,VALID,0,VALID,24.1422,VALID,57,VALID,0,
2010-10-09, 03:03:04,VALID,1008.62,VALID,0,VALID,103.146,VALID,0,VALID,24.1227,VALID,57,VALID,0,
2010-10-09, 03:04:04,VALID,1008.59,VALID,0,VALID,103.115,VALID,0,VALID,24.1209,VALID,57,VALID,0,
2010-10-09, 03:05:04,VALID,1008.57,VALID,0,VALID,103.131,VALID,0,VALID,24.1422,VALID,57,VALID,0,
2010-10-09, 03:06:04,VALID,1008.55,VALID,0,VALID,103.115,VALID,0,VALID,24.1422,VALID,57,VALID,0,
2010-10-09, 03:07:04,VALID,1008.51,VALID,0,VALID,103.131,VALID,0.105969,VALID,24.1422,VALID,57,VALID,0,
2010-10-09, 03:08:04,VALID,1008.51,VALID,0,VALID,103.108,VALID,0,VALID,24.1209,VALID,57,VALID,0,
2010-10-09, 03:09:04,VALID,1008.51,VALID,0,VALID,103.154,VALID,0,VALID,24.1227,VALID,57,VALID,0,
2010-10-09, 03:10:04,VALID,1008.49,VALID,0,VALID,103.146,VALID,0,VALID,24.1014,VALID,57,VALID,0,
2010-10-09, 03:11:04,VALID,1008.46,VALID,0,VALID,103.131,VALID,0,VALID,24.1014,VALID,57,VALID,0,
2010-10-09, 03:12:04,VALID,1008.47,VALID,0,VALID,103.131,VALID,0,VALID,24.1227,VALID,57,VALID,0,
2010-10-09, 03:13:04,VALID,1008.45,VALID,0,VALID,103.123,VALID,0.105969,VALID,24.1227,VALID,57,VALID,0,
2010-10-09, 03:14:04,VALID,1008.45,VALID,0,VALID,103.115,VALID,0.105969,VALID,24.1014,VALID,57,VALID,0,
2010-10-09, 03:15:04,VALID,1008.47,VALID,0,VALID,103.108,VALID,0.105969,VALID,24.1014,VALID,57,VALID,0,
2010-10-09, 03:16:04,VALID,1008.48,VALID,0,VALID,103.1,VALID,0,VALID,24.1227,VALID,57,VALID,0,
2010-10-09, 03:17:04,VALID,1008.46,VALID,0,VALID,103.085,VALID,0,VALID,24.1227,VALID,57,VALID,0,
2010-10-09, 03:18:04,VALID,1008.48,VALID,0,VALID,103.085,VALID,0.105969,VALID,24.1209,VALID,57,VALID,0,
2010-10-09, 03:19:04,VALID,1008.46,VALID,0,VALID,103.085,VALID,0.105969,VALID,24.1209,VALID,57,VALID,0,
2010-10-09, 03:20:04,VALID,1008.5,VALID,0,VALID,103.085,VALID,0,VALID,24.1422,VALID,57,VALID,0,
2010-10-09, 03:21:04,VALID,1008.52,VALID,0,VALID,103.1,VALID,0,VALID,24.1422,VALID,57,VALID,0,
2010-10-09, 03:22:04,VALID,1008.53,VALID,0,VALID,103.1,VALID,0,VALID,24.1209,VALID,57,VALID,0,
2010-10-09, 03:23:04,VALID,1008.54,VALID,0,VALID,103.108,VALID,0,VALID,24.1422,VALID,57,VALID,0,
2010-10-09, 03:24:04,VALID,1008.55,VALID,0,VALID,103.085,VALID,0,VALID,24.1227,VALID,57,VALID,0,
2010-10-09, 03:25:04,VALID,1008.54,VALID,0,VALID,103.07,VALID,0,VALID,24.1422,VALID,57,VALID,0,
2010-10-09, 03:26:04,VALID,1008.53,VALID,0,VALID,103.085,VALID,0,VALID,24.1422,VALID,57,VALID,0,
2010-10-09, 03:27:04,VALID,1008.52,VALID,0,VALID,103.062,VALID,0,VALID,24.1209,VALID,57,VALID,0,
2010-10-09, 03:28:04,VALID,1008.54,VALID,0,VALID,103.093,VALID,0,VALID,24.1209,VALID,57,VALID,0,
2010-10-09, 03:29:04,VALID,1008.56,VALID,0,VALID,103.093,VALID,0,VALID,24.1227,VALID,57,VALID,0,
2010-10-09, 03:30:04,VALID,1008.55,VALID,0,VALID,103.093,VALID,0,VALID,24.1227,VALID,57,VALID,0,
2010-10-09, 03:31:04,VALID,1008.55,VALID,0,VALID,103.047,VALID,0,VALID,24.1422,VALID,57,VALID,0,
2010-10-09, 03:32:04,VALID,1008.56,VALID,0,VALID,103.062,VALID,0,VALID,24.1422,VALID,57,VALID,0,
2010-10-09, 03:33:04,VALID,1008.58,VALID,0,VALID,103.077,VALID,0,VALID,24.1209,VALID,57,VALID,0,
2010-10-09, 03:34:05,VALID,1008.57,VALID,0,VALID,103.077,VALID,0,VALID,24.1617,VALID,57,VALID,0,
2010-10-09, 03:35:05,VALID,1008.59,VALID,0,VALID,103.062,VALID,0,VALID,24.1617,VALID,57,VALID,0,
2010-10-09, 03:36:05,VALID,1008.57,VALID,0,VALID,103.054,VALID,0,VALID,24.1422,VALID,57,VALID,0,
2010-10-09, 03:37:05,VALID,1008.59,VALID,0,VALID,103.054,VALID,0,VALID,24.1617,VALID,57,VALID,0,
2010-10-09, 03:38:05,VALID,1008.59,VALID,0,VALID,103.062,VALID,0,VALID,24.1617,VALID,57,VALID,0,
2010-10-09, 03:39:05,VALID,1008.57,VALID,0,VALID,103.07,VALID,0,VALID,24.1617,VALID,56,VALID,0,
2010-10-09, 03:40:05,VALID,1008.57,VALID,0,VALID,103.039,VALID,0.105969,VALID,24.1599,VALID,36,VALID,0,
2010-10-09, 03:41:05,VALID,1008.56,VALID,0,VALID,103.047,VALID,0,VALID,24.1812,VALID,36,VALID,0,
2010-10-09, 03:42:05,VALID,1008.57,VALID,0,VALID,103.032,VALID,0,VALID,24.1812,VALID,36,VALID,0,
2010-10-09, 03:43:05,VALID,1008.56,VALID,0,VALID,103.054,VALID,0,VALID,24.1812,VALID,36,VALID,0,
2010-10-09, 03:44:05,VALID,1008.57,VALID,0,VALID,103.032,VALID,0,VALID,24.1599,VALID,36,VALID,0,
2010-10-09, 03:45:05,VALID,1008.52,VALID,0,VALID,103.024,VALID,0,VALID,24.2007,VALID,36,VALID,0,
2010-10-09, 03:46:05,VALID,1008.51,VALID,0,VALID,103.024,VALID,0,VALID,24.2007,VALID,36,VALID,0,
2010-10-09, 03:47:05,VALID,1008.52,VALID,0,VALID,103.032,VALID,0.105969,VALID,24.1988,VALID,36,VALID,0,
2010-10-09, 03:48:05,VALID,1008.49,VALID,0,VALID,103.009,VALID,0,VALID,24.1988,VALID,36,VALID,0,
2010-10-09, 03:49:05,VALID,1008.5,VALID,0,VALID,103.001,VALID,0,VALID,24.2396,VALID,36,VALID,0,
2010-10-09, 03:50:05,VALID,1008.48,VALID,0,VALID,102.986,VALID,0,VALID,24.2396,VALID,36,VALID,0,
2010-10-09, 03:51:05,VALID,1008.5,VALID,0,VALID,102.986,VALID,0,VALID,24.2591,VALID,36,VALID,0,
2010-10-09, 03:52:05,VALID,1008.49,VALID,0,VALID,102.986,VALID,0,VALID,24.2591,VALID,36,VALID,0,
2010-10-09, 03:53:05,VALID,1008.48,VALID,0,VALID,102.978,VALID,0,VALID,24.2591,VALID,36,VALID,0,
2010-10-09, 03:54:05,VALID,1008.49,VALID,0,VALID,103.001,VALID,0,VALID,24.2396,VALID,36,VALID,0,
2010-10-09, 03:55:05,VALID,1008.48,VALID,0,VALID,102.993,VALID,0,VALID,24.2591,VALID,36,VALID,0,
2010-10-09, 03:56:05,VALID,1008.49,VALID,0,VALID,103.009,VALID,0,VALID,24.2591,VALID,36,VALID,0,
2010-10-09, 03:57:05,VALID,1008.49,VALID,0,VALID,103.009,VALID,0,VALID,24.2805,VALID,36,VALID,0,
2010-10-09, 03:58:05,VALID,1008.51,VALID,0,VALID,103.024,VALID,0,VALID,24.2786,VALID,36,VALID,0,